QPF
0.00 0.00 0.00 0.01 0.03 0.03 0.02 0.02 0.00 0.00 0.00 0.00 0.00 0.00 0.00 0.00 0.01 0.01 0.03 0.01 0.00 0.00 0.00 0.00 0.00 0.00 0.00 0.00 0.00 0.00 0.01 0.01 0.02 0.02 0.02 0.03 0.04 0.07 0.08 0.08 0.11 0.11 0.09 0.07 0.04 0.03 0.08 0.19 0.23
0.00 0.00 0.01 0.02 0.05 0.03 0.02 0.01 0.00 0.00 0.00 0.00 0.00 0.00 0.00 0.00 0.00 0.01 0.01 0.01 0.00 0.01 0.00 0.00 0.00 0.00 0.00 0.00 0.00 0.00 0.00 0.01 0.01 0.01 0.01 0.02 0.03 0.06 0.08 0.08 0.09 0.09 0.09 0.07 0.04 0.04 0.05 0.10 0.15
0.00 0.00 0.01 0.04 0.06 0.03 0.01 0.01 0.01 0.00 0.00 0.00 0.00 0.00 0.00 0.01 0.00 0.01 0.01 0.01 0.01 0.01 0.01 0.00 0.00 0.00 0.00 0.00 0.00 0.00 0.00 0.00 0.00 0.01 0.01 0.02 0.02 0.05 0.14 0.13 0.08 0.06 0.06 0.07 0.05 0.03 0.02 0.04 0.08
0.00 0.01 0.02 0.03 0.03 0.02 0.01 0.01 0.01 0.00 0.00 0.00 0.00 0.01 0.01 0.01 0.01 0.01 0.01 0.01 0.01 0.01 0.01 0.01 0.00 0.00 0.00 0.00 0.00 0.00 0.00 0.00 0.00 0.01 0.01 0.01 0.02 0.05 0.15 0.18 0.11 0.06 0.04 0.05 0.05 0.03 0.02 0.03 0.04
0.00 0.01 0.03 0.03 0.02 0.01 0.01 0.01 0.01 0.01 0.00 0.00 0.00 0.01 0.02 0.02 0.01 0.02 0.01 0.01 0.01 0.01 0.01 0.01 0.01 0.00 0.00 0.00 0.00 0.01 0.01 0.00 0.01 0.01 0.01 0.01 0.02 0.03 0.07 0.13 0.12 0.09 0.06 0.05 0.05 0.03 0.03 0.03 0.03
0.00 0.01 0.03 0.03 0.01 0.01 0.03 0.02 0.01 0.00 0.00 0.00 0.01 0.02 0.04 0.04 0.01 0.02 0.01 0.01 0.01 0.01 0.01 0.01 0.01 0.00 0.00 0.00 0.00 0.01 0.01 0.00 0.01 0.01 0.01 0.01 0.02 0.03 0.05 0.08 0.10 0.09 0.10 0.08 0.06 0.04 0.03 0.03 0.03
0.01 0.01 0.03 0.03 0.02 0.03 0.02 0.01 0.01 0.00 0.00 0.00 0.00 0.01 0.04 0.02 0.01 0.01 0.01 0.01 0.01 0.01 0.00 0.01 0.01 0.00 0.00 0.00 0.00 0.00 0.01 0.00 0.00 0.01 0.01 0.01 0.02 0.03 0.03 0.03 0.05 0.06 0.11 0.11 0.08 0.07 0.04 0.03 0.03
0.00 0.00 0.01 0.01 0.02 0.06 0.03 0.01 0.01 0.00 0.00 0.00 0.00 0.01 0.05 0.02 0.01 0.01 0.01 0.01 0.01 0.01 0.00 0.01 0.01 0.00 0.00 0.00 0.00 0.01 0.01 0.00 0.00 0.01 0.01 0.01 0.02 0.03 0.02 0.02 0.03 0.04 0.07 0.09 0.07 0.06 0.05 0.05 0.05
0.01 0.01 0.01 0.01 0.01 0.01 0.02 0.01 0.01 0.00 0.00 0.00 0.00 0.01 0.03 0.02 0.01 0.01 0.02 0.02 0.02 0.02 0.01 0.01 0.00 0.00 0.00 0.00 0.01 0.01 0.02 0.01 0.01 0.01 0.01 0.01 0.02 0.03 0.03 0.04 0.04 0.04 0.06 0.09 0.10 0.05 0.05 0.05 0.05
0.01 0.00 0.00 0.00 0.00 0.00 0.00 0.01 0.01 0.01 0.01 0.01 0.01 0.01 0.01 0.01 0.01 0.01 0.01 0.01 0.01 0.01 0.01 0.01 0.00 0.01 0.01 0.00 0.01 0.01 0.02 0.02 0.01 0.02 0.02 0.02 0.03 0.03 0.04 0.05 0.05 0.05 0.08 0.11 0.10 0.06 0.05 0.05 0.04
0.00 0.00 0.00 0.00 0.00 0.00 0.00 0.01 0.01 0.01 0.01 0.01 0.01 0.01 0.01 0.00 0.02 0.02 0.01 0.01 0.00 0.00 0.00 0.01 0.01 0.01 0.00 0.00 0.00 0.01 0.01 0.01 0.02 0.02 0.02 0.03 0.03 0.04 0.05 0.06 0.06 0.09 0.10 0.08 0.08 0.07 0.04 0.04 0.04
0.00 0.00 0.00 0.00 0.00 0.00 0.00 0.00 0.01 0.01 0.02 0.01 0.01 0.01 0.01 0.01 0.01 0.01 0.01 0.01 0.01 0.01 0.01 0.02 0.02 0.01 0.00 0.00 0.00 0.01 0.01 0.01 0.01 0.01 0.02 0.04 0.04 0.05 0.07 0.07 0.06 0.06 0.06 0.08 0.10 0.08 0.04 0.03 0.03
0.00 0.00 0.00 0.00 0.00 0.00 0.00 0.00 0.01 0.02 0.02 0.01 0.02 0.02 0.01 0.01 0.01 0.01 0.01 0.01 0.01 0.01 0.01 0.02 0.01 0.01 0.01 0.01 0.02 0.01 0.01 0.01 0.01 0.01 0.02 0.03 0.04 0.05 0.06 0.06 0.03 0.03 0.06 0.09 0.09 0.08 0.06 0.05 0.04
0.00 0.00 0.00 0.00 0.00 0.00 0.00 0.00 0.01 0.01 0.01 0.01 0.02 0.03 0.02 0.01 0.02 0.02 0.03 0.02 0.03 0.02 0.02 0.01 0.01 0.01 0.01 0.01 0.02 0.02 0.01 0.01 0.01 0.01 0.02 0.02 0.03 0.03 0.04 0.03 0.03 0.05 0.08 0.09 0.09 0.08 0.06 0.05 0.04
0.00 0.00 0.00 0.00 0.00 0.00 0.00 0.00 0.02 0.01 0.01 0.01 0.03 0.02 0.02 0.01 0.01 0.01 0.03 0.05 0.05 0.03 0.03 0.02 0.02 0.02 0.02 0.02 0.02 0.01 0.01 0.01 0.01 0.01 0.01 0.01 0.02 0.03 0.03 0.02 0.03 0.04 0.08 0.11 0.10 0.11 0.09 0.07 0.05
0.00 0.00 0.00 0.00 0.00 0.00 0.00 0.00 0.01 0.01 0.00 0.01 0.02 0.02 0.01 0.01 0.01 0.01 0.03 0.08 0.09 0.04 0.05 0.06 0.08 0.07 0.05 0.03 0.03 0.02 0.02 0.01 0.01 0.01 0.02 0.02 0.02 0.02 0.02 0.02 0.02 0.02 0.04 0.05 0.06 0.07 0.07 0.06 0.04
0.00 0.01 0.00 0.00 0.00 0.00 0.00 0.00 0.00 0.00 0.00 0.00 0.01 0.01 0.01 0.01 0.01 0.01 0.01 0.02 0.07 0.06 0.04 0.05 0.08 0.07 0.06 0.05 0.05 0.03 0.03 0.02 0.01 0.01 0.02 0.02 0.03 0.02 0.02 0.02 0.02 0.03 0.03 0.03 0.04 0.05 0.05 0.05 0.04
0.00 0.00 0.01 0.01 0.01 0.00 0.00 0.00 0.00 0.00 0.00 0.00 0.01 0.01 0.02 0.02 0.01 0.01 0.01 0.01 0.04 0.06 0.05 0.05 0.05 0.04 0.03 0.04 0.05 0.05 0.04 0.03 0.03 0.03 0.03 0.04 0.03 0.03 0.03 0.03 0.03 0.03 0.03 0.03 0.04 0.04 0.03 0.03 0.04
0.00 0.00 0.00 0.01 0.00 0.01 0.00 0.00 0.00 0.00 0.00 0.01 0.01 0.01 0.02 0.02 0.01 0.02 0.05 0.02 0.02 0.03 0.05 0.07 0.07 0.07 0.05 0.04 0.04 0.05 0.05 0.04 0.03 0.03 0.04 0.03 0.04 0.04 0.04 0.03 0.03 0.03 0.03 0.03 0.02 0.04 0.04 0.04 0.05
0.00 0.00 0.00 0.00 0.00 0.01 0.00 0.00 0.00 0.01 0.01 0.02 0.03 0.03 0.03 0.01 0.01 0.02 0.04 0.02 0.01 0.02 0.03 0.03 0.06 0.09 0.08 0.05 0.04 0.05 0.04 0.02 0.01 0.02 0.02 0.02 0.03 0.03 0.02 0.02 0.01 0.01 0.02 0.02 0.02 0.03 0.03 0.04 0.05
0.00 0.01 0.00 0.00 0.00 0.01 0.01 0.01 0.01 0.02 0.02 0.03 0.04 0.04 0.03 0.02 0.02 0.02 0.02 0.02 0.01 0.02 0.02 0.02 0.02 0.03 0.04 0.03 0.03 0.04 0.03 0.03 0.01 0.01 0.01 0.01 0.02 0.02 0.02 0.01 0.01 0.01 0.01 0.01 0.02 0.03 0.03 0.04 0.06
0.00 0.00 0.00 0.01 0.01 0.03 0.01 0.01 0.02 0.02 0.02 0.03 0.04 0.04 0.03 0.02 0.02 0.03 0.03 0.03 0.02 0.02 0.02 0.01 0.01 0.02 0.02 0.02 0.02 0.04 0.04 0.03 0.02 0.02 0.02 0.02 0.02 0.02 0.03 0.02 0.02 0.02 0.01 0.02 0.03 0.02 0.03 0.04 0.05
0.00 0.00 0.01 0.01 0.01 0.04 0.02 0.01 0.03 0.03 0.04 0.04 0.03 0.04 0.03 0.02 0.02 0.02 0.03 0.05 0.03 0.03 0.02 0.01 0.01 0.02 0.02 0.03 0.04 0.04 0.04 0.04 0.03 0.03 0.03 0.04 0.03 0.04 0.04 0.04 0.04 0.03 0.03 0.03 0.04 0.04 0.04 0.04 0.05
0.00 0.00 0.01 0.01 0.01 0.04 0.03 0.01 0.02 0.04 0.05 0.05 0.05 0.05 0.04 0.03 0.03 0.03 0.04 0.05 0.05 0.04 0.03 0.02 0.02 0.03 0.05 0.06 0.05 0.03 0.03 0.04 0.03 0.03 0.03 0.03 0.03 0.04 0.04 0.04 0.04 0.04 0.04 0.05 0.05 0.04 0.04 0.05 0.06
0.01 0.00 0.01 0.01 0.02 0.04 0.04 0.01 0.03 0.07 0.08 0.07 0.07 0.06 0.05 0.06 0.05 0.04 0.03 0.05 0.04 0.03 0.02 0.03 0.03 0.03 0.05 0.05 0.04 0.03 0.04 0.04 0.04 0.03 0.03 0.03 0.03 0.03 0.03 0.03 0.03 0.03 0.04 0.04 0.04 0.05 0.05 0.06 0.07
0.01 0.01 0.01 0.01 0.03 0.05 0.05 0.03 0.06 0.10 0.12 0.09 0.08 0.06 0.06 0.05 0.03 0.02 0.03 0.04 0.04 0.04 0.04 0.04 0.04 0.04 0.04 0.04 0.03 0.03 0.03 0.03 0.04 0.04 0.03 0.04 0.04 0.03 0.03 0.03 0.03 0.02 0.02 0.02 0.03 0.03 0.04 0.05 0.06
0.01 0.01 0.00 0.01 0.03 0.04 0.08 0.06 0.06 0.07 0.09 0.09 0.07 0.07 0.05 0.04 0.04 0.04 0.04 0.04 0.04 0.04 0.04 0.06 0.07 0.04 0.04 0.04 0.04 0.04 0.04 0.04 0.04 0.04 0.05 0.05 0.05 0.05 0.05 0.04 0.04 0.03 0.02 0.02 0.02 0.02 0.02 0.02 0.03
0.00 0.01 0.01 0.01 0.02 0.03 0.05 0.06 0.09 0.10 0.06 0.05 0.04 0.04 0.04 0.04 0.04 0.03 0.03 0.04 0.04 0.05 0.04 0.05 0.07 0.05 0.04 0.05 0.06 0.06 0.06 0.06 0.06 0.05 0.05 0.06 0.07 0.08 0.07 0.06 0.04 0.04 0.03 0.02 0.03 0.03 0.03 0.02 0.02
0.00 0.01 0.02 0.02 0.02 0.03 0.04 0.04 0.06 0.07 0.05 0.04 0.03 0.02 0.02 0.03 0.03 0.02 0.02 0.03 0.04 0.05 0.05 0.05 0.05 0.05 0.06 0.09 0.09 0.08 0.08 0.07 0.06 0.06 0.06 0.06 0.06 0.06 0.07 0.07 0.05 0.04 0.03 0.03 0.02 0.03 0.05 0.04 0.02
0.00 0.00 0.01 0.01 0.02 0.02 0.02 0.03 0.04 0.04 0.05 0.06 0.04 0.03 0.02 0.03 0.04 0.04 0.03 0.03 0.04 0.05 0.06 0.07 0.07 0.05 0.05 0.06 0.07 0.07 0.07 0.06 0.05 0.05 0.05 0.05 0.06 0.05 0.04 0.05 0.05 0.04 0.03 0.03 0.02 0.04 0.06 0.04 0.03
MSLP
1008.01 1009.11 1010.36 1011.51 1012.35 1012.71 1012.56 1011.96 1011.09 1010.15 1009.38 1008.93 1008.88 1009.19 1009.75 1010.38 1010.91 1011.22 1011.26 1011.07 1010.74 1010.40 1010.18 1010.15 1010.34 1010.69 1011.11 1011.52 1011.84 1012.03 1012.09 1012.09 1012.08 1012.13 1012.27 1012.51 1012.79 1013.07 1013.30 1013.42 1013.44 1013.39 1013.32 1013.28 1013.30 1013.42 1013.63 1013.88 1014.14
1008.49 1009.79 1011.14 1012.27 1012.96 1013.09 1012.65 1011.73 1010.54 1009.35 1008.38 1007.81 1007.69 1007.99 1008.58 1009.26 1009.88 1010.30 1010.46 1010.42 1010.24 1010.07 1010.00 1010.11 1010.40 1010.83 1011.30 1011.73 1012.06 1012.24 1012.31 1012.32 1012.32 1012.39 1012.54 1012.76 1013.03 1013.28 1013.46 1013.54 1013.53 1013.46 1013.38 1013.33 1013.36 1013.47 1013.66 1013.89 1014.13
1009.22 1010.65 1012.03 1013.07 1013.58 1013.46 1012.72 1011.51 1010.07 1008.66 1007.54 1006.87 1006.70 1006.97 1007.56 1008.28 1008.95 1009.43 1009.70 1009.77 1009.74 1009.71 1009.78 1010.01 1010.41 1010.90 1011.42 1011.87 1012.21 1012.41 1012.50 1012.52 1012.55 1012.62 1012.77 1012.97 1013.20 1013.40 1013.53 1013.57 1013.54 1013.47 1013.40 1013.37 1013.43 1013.56 1013.75 1013.96 1014.17
1010.15 1011.63 1012.95 1013.85 1014.15 1013.77 1012.78 1011.35 1009.71 1008.17 1006.96 1006.23 1006.02 1006.27 1006.84 1007.55 1008.22 1008.73 1009.06 1009.21 1009.29 1009.38 1009.57 1009.90 1010.36 1010.91 1011.46 1011.93 1012.28 1012.50 1012.61 1012.67 1012.72 1012.80 1012.94 1013.12 1013.31 1013.46 1013.55 1013.56 1013.52 1013.45 1013.41 1013.42 1013.51 1013.66 1013.86 1014.07 1014.26
1011.16 1012.61 1013.80 1014.51 1014.58 1013.98 1012.80 1011.22 1009.50 1007.91 1006.68 1005.95 1005.73 1005.95 1006.48 1007.14 1007.77 1008.27 1008.61 1008.82 1008.96 1009.14 1009.41 1009.81 1010.32 1010.89 1011.45 1011.92 1012.28 1012.51 1012.65 1012.73 1012.81 1012.92 1013.06 1013.23 1013.39 1013.51 1013.56 1013.55 1013.50 1013.45 1013.43 1013.48 1013.60 1013.77 1013.98 1014.17 1014.34
1012.12 1013.44 1014.43 1014.91 1014.77 1014.00 1012.70 1011.08 1009.37 1007.84 1006.68 1005.99 1005.78 1005.98 1006.46 1007.04 1007.61 1008.07 1008.39 1008.61 1008.80 1009.03 1009.36 1009.80 1010.33 1010.89 1011.43 1011.88 1012.22 1012.46 1012.61 1012.72 1012.83 1012.97 1013.13 1013.30 1013.45 1013.55 1013.58 1013.56 1013.51 1013.47 1013.47 1013.53 1013.66 1013.84 1014.03 1014.20 1014.34
1012.88 1013.98 1014.73 1014.97 1014.64 1013.74 1012.42 1010.85 1009.25 1007.86 1006.83 1006.24 1006.08 1006.27 1006.68 1007.19 1007.67 1008.06 1008.35 1008.58 1008.80 1009.07 1009.43 1009.89 1010.41 1010.94 1011.43 1011.84 1012.15 1012.36 1012.52 1012.65 1012.80 1012.97 1013.16 1013.34 1013.49 1013.59 1013.62 1013.59 1013.54 1013.50 1013.50 1013.57 1013.68 1013.84 1013.99 1014.13 1014.22
1013.33 1014.18 1014.66 1014.67 1014.17 1013.21 1011.92 1010.48 1009.07 1007.88 1007.03 1006.56 1006.46 1006.65 1007.00 1007.43 1007.83 1008.16 1008.43 1008.66 1008.91 1009.22 1009.60 1010.06 1010.56 1011.05 1011.48 1011.82 1012.07 1012.26 1012.40 1012.54 1012.72 1012.92 1013.14 1013.35 1013.52 1013.62 1013.66 1013.63 1013.58 1013.53 1013.52 1013.56 1013.64 1013.75 1013.87 1013.95 1014.01
1013.47 1014.04 1014.25 1014.04 1013.41 1012.43 1011.23 1009.96 1008.77 1007.81 1007.15 1006.81 1006.78 1006.96 1007.26 1007.61 1007.94 1008.23 1008.48 1008.74 1009.03 1009.38 1009.80 1010.26 1010.74 1011.17 1011.53 1011.81 1012.00 1012.14 1012.26 1012.41 1012.59 1012.82 1013.07 1013.31 1013.50 1013.62 1013.67 1013.66 1013.60 1013.55 1013.52 1013.52 1013.56 1013.63 1013.69 1013.73 1013.75
1013.36 1013.66 1013.62 1013.22 1012.49 1011.52 1010.42 1009.33 1008.35 1007.60 1007.12 1006.90 1006.90 1007.07 1007.33 1007.61 1007.89 1008.15 1008.42 1008.71 1009.05 1009.46 1009.92 1010.40 1010.85 1011.25 1011.55 1011.76 1011.90 1012.00 1012.10 1012.23 1012.42 1012.66 1012.93 1013.19 1013.41 1013.56 1013.63 1013.63 1013.59 1013.54 1013.49 1013.47 1013.48 1013.50 1013.52 1013.53 1013.52
1013.11 1013.18 1012.91 1012.35 1011.55 1010.60 1009.61 1008.67 1007.87 1007.29 1006.93 1006.78 1006.80 1006.93 1007.13 1007.36 1007.60 1007.85 1008.14 1008.49 1008.89 1009.36 1009.87 1010.37 1010.82 1011.19 1011.46 1011.63 1011.73 1011.79 1011.87 1012.00 1012.19 1012.44 1012.72 1013.00 1013.24 1013.41 1013.52 1013.55 1013.53 1013.49 1013.46 1013.44 1013.43 1013.43 1013.43 1013.42 1013.41
1012.88 1012.74 1012.29 1011.61 1010.75 1009.82 1008.90 1008.07 1007.40 1006.91 1006.61 1006.48 1006.47 1006.54 1006.68 1006.85 1007.05 1007.31 1007.63 1008.02 1008.49 1009.02 1009.56 1010.09 1010.55 1010.92 1011.18 1011.34 1011.43 1011.49 1011.57 1011.70 1011.89 1012.14 1012.43 1012.72 1012.97 1013.18 1013.31 1013.39 1013.42 1013.43 1013.43 1013.43 1013.44 1013.45 1013.46 1013.46 1013.45
1012.77 1012.46 1011.87 1011.09 1010.19 1009.27 1008.39 1007.63 1007.01 1006.55 1006.25 1006.07 1005.99 1005.98 1006.03 1006.14 1006.31 1006.56 1006.90 1007.33 1007.84 1008.40 1008.98 1009.53 1010.01 1010.39 1010.67 1010.86 1010.98 1011.08 1011.19 1011.34 1011.54 1011.79 1012.07 1012.36 1012.63 1012.86 1013.04 1013.17 1013.27 1013.34 1013.40 1013.46 1013.51 1013.56 1013.60 1013.62 1013.63
1012.82 1012.39 1011.70 1010.85 1009.92 1009.00 1008.14 1007.39 1006.78 1006.29 1005.93 1005.66 1005.48 1005.37 1005.33 1005.37 1005.49 1005.72 1006.05 1006.48 1007.00 1007.56 1008.15 1008.71 1009.21 1009.62 1009.95 1010.21 1010.40 1010.57 1010.74 1010.93 1011.15 1011.41 1011.69 1011.97 1012.24 1012.49 1012.71 1012.90 1013.06 1013.22 1013.36 1013.49 1013.61 1013.71 1013.80 1013.86 1013.90
1013.00 1012.47 1011.72 1010.83 1009.90 1008.98 1008.14 1007.39 1006.74 1006.20 1005.75 1005.37 1005.08 1004.86 1004.72 1004.68 1004.75 1004.93 1005.23 1005.62 1006.10 1006.63 1007.18 1007.73 1008.24 1008.70 1009.10 1009.44 1009.75 1010.02 1010.27 1010.52 1010.78 1011.04 1011.31 1011.58 1011.84 1012.10 1012.35 1012.59 1012.83 1013.06 1013.28 1013.49 1013.68 1013.84 1013.97 1014.08 1014.15
1013.18 1012.60 1011.82 1010.94 1010.04 1009.16 1008.34 1007.60 1006.93 1006.32 1005.79 1005.31 1004.91 1004.58 1004.36 1004.24 1004.24 1004.36 1004.58 1004.90 1005.30 1005.75 1006.24 1006.75 1007.26 1007.75 1008.23 1008.68 1009.11 1009.50 1009.85 1010.18 1010.47 1010.74 1010.99 1011.24 1011.48 1011.73 1011.99 1012.27 1012.56 1012.86 1013.15 1013.42 1013.67 1013.88 1014.06 1014.20 1014.31
1013.25 1012.64 1011.89 1011.07 1010.25 1009.46 1008.72 1008.02 1007.35 1006.71 1006.11 1005.56 1005.07 1004.66 1004.36 1004.17 1004.09 1004.13 1004.26 1004.48 1004.76 1005.11 1005.50 1005.94 1006.43 1006.95 1007.49 1008.05 1008.58 1009.09 1009.55 1009.94 1010.26 1010.53 1010.76 1010.96 1011.17 1011.40 1011.66 1011.95 1012.28 1012.61 1012.95 1013.27 1013.55 1013.80 1014.01 1014.18 1014.31
1013.09 1012.50 1011.84 1011.16 1010.49 1009.86 1009.25 1008.64 1008.02 1007.40 1006.78 1006.18 1005.63 1005.17 1004.80 1004.54 1004.40 1004.35 1004.37 1004.47 1004.62 1004.83 1005.12 1005.47 1005.91 1006.44 1007.02 1007.65 1008.27 1008.87 1009.40 1009.83 1010.17 1010.42 1010.61 1010.76 1010.92 1011.12 1011.36 1011.65 1011.99 1012.35 1012.70 1013.04 1013.34 1013.60 1013.82 1014.01 1014.17
1012.67 1012.17 1011.66 1011.18 1010.75 1010.34 1009.93 1009.48 1008.98 1008.41 1007.81 1007.20 1006.62 1006.12 1005.70 1005.39 1005.18 1005.04 1004.96 1004.94 1004.96 1005.04 1005.19 1005.45 1005.82 1006.32 1006.91 1007.56 1008.23 1008.86 1009.42 1009.86 1010.17 1010.38 1010.52 1010.62 1010.73 1010.88 1011.10 1011.38 1011.72 1012.08 1012.44 1012.77 1013.07 1013.32 1013.54 1013.73 1013.92
1012.05 1011.70 1011.41 1011.21 1011.08 1010.96 1010.80 1010.56 1010.21 1009.74 1009.19 1008.59 1008.01 1007.48 1007.03 1006.67 1006.39 1006.18 1006.01 1005.88 1005.77 1005.73 1005.77 1005.92 1006.21 1006.64 1007.18 1007.81 1008.46 1009.07 1009.59 1009.98 1010.24 1010.38 1010.45 1010.49 1010.55 1010.67 1010.87 1011.15 1011.48 1011.84 1012.20 1012.52 1012.79 1013.03 1013.23 1013.42 1013.62
1011.35 1011.21 1011.21 1011.33 1011.54 1011.75 1011.88 1011.88 1011.70 1011.35 1010.86 1010.29 1009.70 1009.15 1008.66 1008.26 1007.94 1007.67 1007.43 1007.21 1007.01 1006.86 1006.80 1006.84 1007.03 1007.37 1007.82 1008.36 1008.92 1009.43 1009.86 1010.15 1010.31 1010.36 1010.35 1010.33 1010.35 1010.45 1010.65 1010.94 1011.28 1011.65 1012.00 1012.31 1012.57 1012.77 1012.96 1013.14 1013.34
1010.77 1010.87 1011.18 1011.65 1012.21 1012.75 1013.17 1013.39 1013.38 1013.14 1012.70 1012.15 1011.55 1010.97 1010.46 1010.02 1009.65 1009.34 1009.05 1008.78 1008.52 1008.31 1008.16 1008.11 1008.20 1008.41 1008.74 1009.13 1009.54 1009.90 1010.16 1010.31 1010.33 1010.27 1010.18 1010.11 1010.11 1010.21 1010.43 1010.75 1011.12 1011.51 1011.87 1012.17 1012.41 1012.59 1012.75 1012.91 1013.11
1010.46 1010.81 1011.42 1012.22 1013.09 1013.92 1014.58 1015.00 1015.12 1014.96 1014.56 1014.01 1013.39 1012.77 1012.22 1011.75 1011.36 1011.02 1010.71 1010.42 1010.14 1009.89 1009.68 1009.56 1009.54 1009.63 1009.80 1010.01 1010.22 1010.38 1010.45 1010.41 1010.28 1010.10 1009.93 1009.81 1009.81 1009.93 1010.19 1010.55 1010.98 1011.40 1011.78 1012.09 1012.31 1012.48 1012.60 1012.74 1012.92
1010.54 1011.11 1011.97 1013.02 1014.13 1015.17 1016.01 1016.55 1016.75 1016.63 1016.24 1015.67 1015.02 1014.38 1013.79 1013.29 1012.89 1012.55 1012.25 1011.97 1011.69 1011.43 1011.20 1011.03 1010.92 1010.87 1010.88 1010.90 1010.89 1010.83 1010.68 1010.45 1010.17 1009.87 1009.61 1009.47 1009.46 1009.62 1009.93 1010.35 1010.83 1011.30 1011.71 1012.03 1012.25 1012.39 1012.49 1012.60 1012.75
1011.03 1011.76 1012.78 1013.98 1015.23 1016.37 1017.29 1017.88 1018.11 1017.98 1017.58 1016.99 1016.32 1015.64 1015.04 1014.53 1014.13 1013.80 1013.53 1013.29 1013.04 1012.81 1012.58 1012.37 1012.19 1012.03 1011.88 1011.72 1011.51 1011.23 1010.87 1010.46 1010.02 1009.61 1009.29 1009.11 1009.11 1009.30 1009.66 1010.14 1010.67 1011.18 1011.62 1011.95 1012.18 1012.30 1012.37 1012.45 1012.56
1011.88 1012.68 1013.75 1014.99 1016.25 1017.39 1018.28 1018.85 1019.05 1018.90 1018.48 1017.87 1017.19 1016.51 1015.91 1015.41 1015.03 1014.74 1014.51 1014.31 1014.12 1013.92 1013.71 1013.49 1013.26 1013.02 1012.75 1012.43 1012.04 1011.57 1011.04 1010.47 1009.89 1009.39 1009.01 1008.81 1008.81 1009.02 1009.41 1009.93 1010.49 1011.03 1011.50 1011.84 1012.06 1012.18 1012.23 1012.28 1012.36
1012.98 1013.75 1014.77 1015.92 1017.08 1018.11 1018.91 1019.39 1019.53 1019.34 1018.90 1018.30 1017.64 1016.99 1016.42 1015.96 1015.62 1015.37 1015.20 1015.05 1014.91 1014.75 1014.57 1014.36 1014.11 1013.81 1013.45 1013.01 1012.49 1011.89 1011.22 1010.53 1009.86 1009.28 1008.85 1008.62 1008.61 1008.82 1009.21 1009.74 1010.31 1010.86 1011.33 1011.68 1011.91 1012.02 1012.07 1012.10 1012.15
1014.20 1014.86 1015.73 1016.70 1017.67 1018.52 1019.16 1019.52 1019.58 1019.36 1018.93 1018.37 1017.76 1017.18 1016.67 1016.27 1015.98 1015.78 1015.65 1015.55 1015.45 1015.33 1015.17 1014.98 1014.72 1014.39 1013.99 1013.49 1012.89 1012.21 1011.46 1010.69 1009.96 1009.33 1008.86 1008.59 1008.55 1008.73 1009.10 1009.60 1010.16 1010.70 1011.16 1011.51 1011.75 1011.87 1011.92 1011.95 1012.00
1015.42 1015.92 1016.58 1017.32 1018.04 1018.67 1019.12 1019.35 1019.34 1019.11 1018.72 1018.23 1017.71 1017.22 1016.80 1016.47 1016.24 1016.08 1015.98 1015.90 1015.81 1015.71 1015.58 1015.39 1015.14 1014.81 1014.39 1013.87 1013.25 1012.54 1011.77 1010.97 1010.21 1009.55 1009.05 1008.75 1008.67 1008.80 1009.11 1009.56 1010.07 1010.58 1011.02 1011.37 1011.62 1011.76 1011.84 1011.89 1011.95
1016.58 1016.90 1017.34 1017.82 1018.30 1018.69 1018.97 1019.08 1019.02 1018.80 1018.47 1018.08 1017.67 1017.29 1016.96 1016.70 1016.51 1016.38 1016.27 1016.19 1016.09 1015.98 1015.84 1015.66 1015.41 1015.09 1014.68 1014.18 1013.58 1012.88 1012.12 1011.34 1010.59 1009.92 1009.40 1009.07 1008.94 1009.01 1009.25 1009.63 1010.08 1010.54 1010.96 1011.30 1011.56 1011.74 1011.86 1011.95 1012.04
Thickness
5838 5837 5833 5822 5801 5780 5778 5797 5813 5817 5821 5830 5831 5822 5809 5800 5789 5777 5799 5805 5801 5797 5794 5792 5790 5789 5787 5785 5783 5782 5781 5780 5779 5779 5778 5777 5776 5775 5775 5774 5773 5772 5771 5771 5771 5770 5770 5769 5769
5839 5836 5826 5810 5784 5764 5776 5804 5812 5820 5828 5834 5830 5823 5811 5803 5807 5800 5801 5803 5801 5797 5794 5792 5790 5788 5786 5784 5783 5781 5780 5779 5778 5778 5777 5776 5775 5774 5773 5772 5771 5770 5770 5769 5769 5768 5767 5767 5766
5840 5836 5814 5796 5779 5770 5784 5808 5817 5829 5838 5836 5824 5822 5812 5804 5808 5804 5806 5804 5800 5796 5794 5792 5789 5787 5785 5784 5782 5781 5779 5778 5777 5777 5776 5775 5774 5773 5772 5771 5770 5769 5768 5767 5767 5766 5765 5765 5764
5835 5822 5808 5787 5781 5794 5804 5816 5825 5828 5831 5834 5824 5810 5813 5820 5817 5812 5809 5804 5799 5795 5793 5791 5789 5787 5785 5783 5782 5780 5778 5777 5777 5776 5775 5774 5773 5772 5771 5770 5769 5768 5767 5766 5765 5765 5764 5763 5763
5829 5808 5790 5778 5787 5807 5822 5830 5832 5825 5825 5825 5822 5805 5804 5820 5822 5815 5809 5804 5800 5796 5793 5790 5789 5787 5784 5783 5781 5779 5778 5777 5776 5775 5774 5773 5772 5771 5770 5769 5768 5767 5766 5765 5764 5763 5763 5762 5761
5811 5797 5775 5770 5790 5813 5827 5835 5833 5826 5822 5822 5817 5804 5802 5817 5816 5812 5809 5805 5802 5797 5794 5791 5788 5786 5784 5783 5781 5779 5777 5776 5775 5774 5773 5772 5771 5770 5769 5768 5767 5766 5765 5764 5763 5762 5761 5761 5760
5802 5789 5776 5782 5790 5805 5826 5836 5830 5825 5821 5823 5823 5803 5802 5811 5815 5813 5809 5805 5801 5798 5794 5791 5788 5786 5784 5783 5781 5779 5777 5776 5774 5773 5772 5772 5771 5769 5768 5767 5766 5765 5764 5763 5762 5761 5760 5760 5759
5814 5793 5783 5785 5793 5803 5829 5836 5836 5830 5825 5835 5830 5806 5800 5811 5816 5813 5807 5803 5800 5796 5794 5791 5789 5786 5784 5782 5781 5779 5777 5775 5774 5772 5772 5771 5769 5768 5767 5766 5765 5764 5763 5762 5761 5760 5760 5759 5757
5821 5785 5775 5788 5798 5810 5831 5829 5834 5841 5833 5831 5832 5825 5823 5822 5816 5808 5801 5797 5794 5793 5792 5791 5788 5786 5784 5782 5780 5778 5777 5775 5773 5772 5771 5769 5768 5767 5766 5765 5765 5764 5762 5761 5760 5759 5759 5758 5756
5806 5779 5790 5811 5820 5822 5829 5830 5831 5826 5817 5818 5821 5825 5827 5821 5812 5804 5798 5794 5792 5790 5790 5790 5789 5786 5784 5782 5780 5778 5776 5774 5773 5771 5770 5769 5767 5766 5765 5764 5763 5763 5762 5760 5759 5758 5757 5756 5755
5809 5798 5810 5822 5832 5833 5830 5831 5835 5821 5807 5814 5815 5817 5819 5816 5810 5804 5801 5798 5796 5794 5792 5791 5789 5787 5785 5783 5780 5778 5776 5774 5773 5771 5770 5768 5766 5765 5764 5763 5762 5761 5760 5759 5758 5756 5756 5755 5754
5809 5815 5821 5827 5838 5835 5832 5831 5828 5825 5821 5830 5829 5825 5819 5813 5809 5806 5802 5800 5798 5795 5794 5793 5791 5788 5786 5784 5781 5778 5776 5774 5773 5771 5770 5767 5765 5764 5763 5761 5760 5760 5758 5757 5756 5755 5754 5754 5753
5808 5814 5826 5832 5834 5835 5834 5828 5826 5825 5833 5834 5830 5823 5816 5813 5810 5809 5807 5803 5800 5797 5796 5794 5793 5791 5788 5785 5782 5779 5776 5774 5773 5771 5769 5768 5765 5763 5762 5760 5759 5758 5757 5755 5754 5753 5753 5752 5751
5812 5817 5822 5829 5830 5833 5826 5823 5823 5822 5832 5828 5823 5817 5816 5813 5810 5807 5804 5800 5799 5798 5797 5796 5794 5792 5789 5785 5783 5780 5777 5775 5773 5771 5769 5767 5765 5764 5761 5759 5758 5757 5756 5754 5753 5752 5751 5750 5749
5815 5807 5812 5820 5824 5826 5823 5807 5815 5824 5827 5820 5818 5816 5814 5813 5811 5808 5807 5804 5801 5799 5798 5796 5794 5792 5788 5785 5783 5780 5777 5775 5772 5770 5769 5767 5765 5764 5762 5759 5758 5756 5755 5753 5751 5750 5749 5748 5747
5801 5792 5785 5807 5818 5822 5809 5787 5813 5824 5820 5813 5814 5815 5812 5810 5810 5810 5809 5806 5804 5801 5798 5796 5795 5791 5788 5785 5782 5779 5777 5774 5772 5770 5768 5766 5764 5762 5760 5758 5756 5755 5754 5752 5750 5748 5746 5744 5744
5776 5769 5775 5793 5816 5816 5804 5791 5813 5821 5816 5810 5811 5812 5811 5808 5807 5808 5808 5807 5804 5802 5798 5794 5793 5789 5786 5783 5780 5778 5775 5773 5771 5769 5767 5765 5763 5761 5759 5757 5755 5754 5752 5750 5749 5747 5745 5742 5741
5759 5765 5773 5781 5804 5808 5797 5796 5810 5817 5815 5809 5809 5809 5807 5806 5806 5809 5808 5807 5804 5801 5797 5793 5791 5787 5785 5781 5778 5774 5771 5770 5769 5767 5765 5763 5761 5759 5757 5755 5753 5752 5750 5748 5747 5745 5743 5741 5740
5772 5768 5767 5783 5805 5799 5792 5794 5803 5811 5810 5805 5804 5804 5803 5804 5807 5808 5806 5805 5802 5797 5793 5790 5787 5784 5782 5777 5773 5769 5766 5766 5765 5765 5764 5762 5760 5758 5756 5753 5751 5750 5748 5746 5745 5743 5740 5737 5737
5770 5763 5767 5783 5803 5797 5787 5788 5799 5805 5804 5805 5803 5801 5800 5798 5799 5801 5801 5801 5798 5794 5790 5787 5785 5781 5779 5776 5773 5770 5767 5764 5764 5763 5762 5760 5758 5756 5754 5752 5749 5748 5746 5744 5742 5740 5737 5735 5735
5769 5766 5770 5774 5789 5793 5783 5772 5783 5795 5800 5801 5803 5803 5801 5798 5796 5796 5795 5794 5793 5790 5789 5788 5784 5781 5779 5776 5772 5768 5764 5761 5759 5758 5758 5758 5756 5754 5752 5750 5748 5746 5744 5741 5740 5739 5735 5731 5731
5761 5782 5782 5778 5765 5756 5768 5740 5762 5777 5782 5789 5793 5795 5796 5797 5795 5794 5792 5789 5789 5788 5787 5785 5782 5779 5777 5774 5769 5764 5758 5755 5755 5756 5755 5755 5754 5752 5750 5748 5746 5744 5742 5740 5738 5737 5734 5731 5727
5774 5788 5782 5776 5763 5751 5756 5740 5746 5765 5765 5775 5784 5790 5792 5793 5792 5789 5788 5788 5789 5787 5783 5781 5778 5775 5774 5771 5767 5762 5758 5756 5755 5754 5752 5751 5751 5750 5748 5746 5744 5741 5739 5738 5736 5735 5733 5731 5727
5785 5777 5768 5756 5742 5727 5744 5737 5731 5749 5761 5769 5778 5783 5786 5787 5789 5787 5786 5786 5783 5783 5779 5777 5774 5771 5770 5766 5763 5759 5756 5754 5751 5749 5747 5747 5746 5746 5745 5744 5741 5739 5737 5735 5734 5733 5731 5729 5727
5771 5743 5718 5715 5707 5713 5739 5733 5730 5755 5769 5772 5773 5775 5779 5781 5782 5780 5779 5778 5777 5777 5776 5774 5770 5766 5765 5763 5760 5758 5754 5752 5749 5747 5745 5743 5742 5741 5741 5740 5738 5736 5735 5733 5733 5731 5729 5728 5725
5759 5742 5711 5699 5697 5708 5728 5722 5734 5758 5768 5773 5774 5773 5773 5774 5775 5776 5776 5775 5773 5772 5772 5770 5766 5763 5761 5759 5757 5755 5753 5749 5747 5745 5744 5741 5740 5739 5738 5737 5736 5734 5732 5731 5730 5728 5726 5725 5723
5751 5739 5738 5715 5710 5702 5708 5722 5738 5753 5756 5762 5765 5765 5765 5767 5770 5771 5771 5771 5769 5767 5767 5765 5762 5759 5756 5755 5753 5751 5749 5746 5744 5742 5741 5739 5737 5736 5735 5733 5731 5730 5728 5727 5726 5724 5722 5721 5720
5757 5746 5723 5708 5693 5688 5700 5707 5714 5732 5740 5750 5754 5756 5757 5761 5763 5764 5764 5764 5764 5764 5763 5760 5757 5754 5752 5750 5748 5747 5744 5742 5740 5738 5736 5734 5732 5732 5730 5728 5726 5724 5723 5722 5721 5719 5718 5717 5715
5740 5732 5719 5703 5698 5686 5681 5696 5731 5733 5740 5744 5748 5751 5752 5753 5755 5755 5755 5755 5756 5757 5755 5752 5749 5747 5745 5744 5742 5740 5738 5737 5735 5732 5731 5729 5727 5726 5725 5723 5721 5719 5717 5717 5715 5714 5713 5711 5710
5741 5729 5714 5697 5693 5692 5684 5694 5735 5735 5739 5740 5742 5745 5746 5747 5749 5749 5748 5747 5746 5747 5746 5743 5742 5740 5739 5738 5735 5733 5731 5730 5728 5726 5725 5724 5722 5721 5720 5718 5716 5715 5713 5711 5710 5708 5707 5705 5703